Home   Weather   United Kingdom   Nottingham   Past weeks
Flag for United Kingdom

Past Weather in Nottingham, England, United Kingdom — December 2017

Currently: 59 °F. Cool. (Weather station: Nottingham Weather Centre, United Kingdom). See more current weather

December 2017 Weather in Nottingham — Graph

°F

High & Low Weather Summary for December 2017

 TemperatureHumidityPressure
High53 °F (Dec 7, 9:00 am)100% (Dec 13, 4:00 am)30.60 "Hg (Dec 13, 4:00 am)
Low26 °F (Dec 12, 9:00 am)60% (Dec 30, 3:00 pm)28.85 "Hg (Dec 10, 12:00 pm)
Average40 °F88%29.89 "Hg
* Reported Dec 1 12:00 am — Dec 31 11:00 pm, Nottingham. Weather by CustomWeather, © 2021

Note: Actual official high and low records may vary slightly from our data, if they occured in-between our weather recording intervals... More about our weather records

Nottingham Weather History for December 1, 2017

Scroll right to see more
 ConditionsComfort  
Time TempWeatherWind HumidityBarometerVisibility
12:00 am
Fri, Dec 1
35 °FChilly.15 mph88%30.00 "Hg25 mi
1:00 am35 °FLight freezing rain. Overcast.15 mph91%30.01 "Hg22 mi
2:00 am35 °FChilly.13 mph89%30.04 "Hg25 mi
3:00 am35 °FChilly.13 mph91%30.06 "Hg28 mi
4:00 am35 °FChilly.13 mph88%30.09 "Hg25 mi
5:00 am35 °FChilly.9 mph87%30.11 "Hg19 mi
6:00 am35 °FChilly.10 mph88%30.14 "Hg22 mi
7:00 am35 °FChilly.10 mph88%30.16 "Hg17 mi
8:00 am36 °FChilly.13 mph89%30.19 "Hg16 mi
9:00 am36 °FChilly.12 mph89%30.22 "Hg22 mi
10:00 am38 °FChilly.10 mph86%30.24 "Hg22 mi
11:00 am39 °FChilly.13 mph83%30.25 "Hg14 mi
12:00 pm40 °FChilly.12 mph81%30.25 "Hg28 mi
1:00 pm40 °FQuite cool.13 mph79%30.27 "Hg19 mi
2:00 pm41 °FQuite cool.15 mph77%30.26 "Hg17 mi
3:00 pm41 °FQuite cool.13 mph77%30.27 "Hg22 mi
4:00 pm39 °FChilly.9 mph79%30.30 "Hg17 mi
5:00 pm39 °FChilly.10 mph78%30.31 "Hg16 mi
6:00 pm39 °FChilly.10 mph78%30.32 "Hg19 mi
7:00 pm39 °FChilly.7 mph78%30.33 "Hg19 mi
8:00 pm38 °FChilly.5 mph79%30.34 "Hg12 mi
9:00 pm37 °FChilly.6 mph80%30.34 "Hg16 mi
10:00 pm38 °FChilly.7 mph76%30.34 "Hg22 mi
11:00 pm38 °FChilly.7 mph74%30.34 "Hg19 mi
Weather by CustomWeather, © 2021

See weather overview